RH
61 62 62 64 62 58 59 60 63 68 75 77 71 63 64 59 51 51 51 56 64 62
68 70 67 70 67 61 61 61 62 67 79 78 73 67 67 64 59 51 50 55 63 65
70 70 71 72 71 68 68 71 71 71 75 78 78 77 76 72 65 63 59 55 64 61
71 68 71 70 72 74 76 76 77 76 75 77 80 79 81 79 75 70 70 61 64 61
63 62 65 65 67 66 72 76 79 79 80 81 81 78 76 77 75 77 80 72 68 63
75 73 74 70 69 69 70 73 77 78 79 81 80 77 74 74 76 80 85 85 75 65
85 83 83 81 76 75 74 74 75 79 80 81 82 82 79 76 78 88 90 92 82 66
80 78 80 77 78 87 80 71 73 77 73 72 73 73 72 72 85 92 94 93 87 75
80 83 79 79 79 78 76 74 76 77 79 82 80 78 74 79 86 97 98 93 90 84
76 75 75 78 82 80 80 80 86 86 82 85 84 79 80 85 91 85 98 97 96 91
77 79 81 80 82 81 83 86 84 81 81 81 81 80 85 87 85 92 97 98 95 93
59 68 77 81 83 81 83 82 84 85 85 89 86 90 90 91 94 96 97 99 99 94
50 50 52 57 66 77 83 84 86 89 88 90 90 95 95 94 97 97 97 98 98 98
48 48 49 50 51 53 60 70 81 83 83 85 86 92 92 94 94 97 96 98 99 98